[[{"header":{"parameterUnit":"m.s-1","parameterCategory":2,"la1":30.2991,"la2":30.254,"lo1":-89.0895,"lo2":-89.0444,"dy":0.0017,"dx":0.0017,"nx":28,"ny":28,"refTime":"2025-12-03T03:00:00:Z","depth":"0","parameterNumber":2,"parameterNumberName":"U-component_of_CURRENTS"},"data":[0,0,0,0,0,0,0,0,0,0,0,0,0,0,0,0,0,0,0,0,0,0,0,0,0,0,0,0,0,0,0,0,0,0,0,0,0,0,0,0,0,0,0,0,0,0,0,0,0,0,0,0,0,0,0,0,0,0,-0.2003,-0.2004,0,-0.2061,-0.2061,-0.2062,-0.2055,-0.2055,-0.2054,-0.2054,-0.2001,-0.2001,-0.2,0,0,0,0,0,0,0,0,0,0,0,0,0,-0.1866,-0.1868,-0.2003,-0.2004,-0.2005,-0.2061,-0.2061,-0.2062,-0.2055,-0.2055,-0.2054,-0.2053,-0.2002,-0.2001,-0.2,0,0,0,0,0,0,0,0,0,0,0,0,0,-0.1922,-0.1869,-0.2003,-0.2012,-0.2013,-0.2061,-0.2061,-0.2062,-0.2056,-0.2055,-0.2054,-0.2053,-0.2002,-0.2001,-0.2,-0.201,0,0,-0.1996,-0.1995,0,0,0,0,0,0,0,0,-0.1918,-0.1926,-0.2009,-0.2011,-0.2013,-0.2053,-0.1994,-0.204,-0.2056,-0.2036,-0.2053,-0.2052,-0.2011,-0.2009,-0.2019,-0.2007,-0.2005,-0.1996,-0.1995,-0.1994,-0.1994,0,0,0,0,0,0,0,-0.1915,-0.1924,-0.2023,-0.2011,-0.2013,-0.2005,-0.2012,-0.2003,-0.2023,-0.2037,-0.2038,-0.205,-0.2011,-0.202,-0.2017,-0.2004,-0.1996,-0.1995,-0.1994,-0.1993,-0.1999,-0.1999,0,0,0,0,0,0,-0.1917,-0.1921,-0.2021,-0.2025,-0.1966,-0.2009,-0.2016,-0.2038,-0.2026,-0.2025,-0.2051,-0.205,-0.2023,-0.2019,-0.2015,-0.2026,-0.1994,-0.1993,-0.1993,-0.1998,-0.1999,-0.2,0,0,0,0,0,0,-0.1914,-0.1926,-0.2019,-0.1976,-0.1987,-0.2013,-0.2037,-0.204,-0.2047,-0.2038,-0.2034,-0.2055,-0.2022,-0.2017,-0.2014,-0.2024,-0.1993,-0.1992,-0.1997,-0.1998,-0.1999,-0.2048,0,0,0,0,0,0,-0.191,-0.1925,-0.1932,-0.1976,-0.199,-0.2043,-0.2039,-0.2042,-0.2058,-0.2057,-0.204,-0.2035,-0.2021,-0.2016,-0.2013,-0.2022,-0.1991,-0.1996,-0.1997,-0.1999,-0.2045,-0.2051,-0.2056,0,0,0,0,0,-0.1905,-0.1921,-0.1932,-0.1944,-0.2003,-0.2044,-0.2049,-0.2061,-0.2059,-0.2063,-0.2059,-0.2035,-0.2024,-0.2016,-0.2012,-0.2021,-0.1995,-0.1997,-0.1999,-0.2043,-0.205,-0.2056,0,0,0,0,0,0,-0.1857,-0.1923,-0.1937,-0.1969,-0.2003,-0.2043,-0.2049,-0.2064,-0.2067,-0.2061,-0.2047,-0.2042,-0.2042,-0.2028,-0.202,-0.2028,-0.2005,-0.2006,-0.204,-0.2046,-0.2051,-0.2057,-0.199,0,0,0,0,0,-0.1855,-0.1883,-0.1941,-0.1961,-0.1982,-0.2016,-0.2032,-0.2047,-0.2063,-0.2064,-0.2057,-0.205,-0.2049,-0.2045,-0.2036,-0.2042,-0.2032,-0.2046,-0.2051,-0.2055,-0.2058,-0.2082,-0.2089,-0.2006,-0.2006,-0.2006,0,0,-0.184,-0.1879,-0.1893,-0.1952,-0.1977,-0.2011,-0.2022,-0.205,-0.2071,-0.2056,-0.2067,-0.2063,-0.2054,-0.2062,-0.2061,-0.2051,-0.2069,-0.2058,-0.2062,-0.2062,-0.2085,-0.2093,-0.21,-0.2008,-0.2007,-0.2007,0,0,-0.1829,-0.1862,-0.1886,-0.1921,-0.197,-0.1999,-0.2009,-0.2056,-0.2066,-0.2087,-0.2083,-0.2097,-0.2084,-0.2097,-0.2097,-0.2128,-0.2094,-0.2114,-0.2146,-0.2169,-0.2176,-0.2183,-0.2157,-0.2161,-0.2119,-0.2119,-0.2119,0,-0.1806,-0.1852,-0.1894,-0.1929,-0.196,-0.1995,-0.203,-0.205,-0.2085,-0.2114,-0.2089,-0.2128,-0.2107,-0.2151,-0.2148,-0.214,-0.2126,-0.2123,-0.2177,-0.2183,-0.2188,-0.2161,-0.2164,-0.2122,-0.2121,-0.2121,-0.2121,0,-0.1822,-0.1857,-0.1872,-0.1933,-0.1969,-0.2,-0.2052,-0.2082,-0.2101,-0.2133,-0.2178,-0.2173,-0.2202,-0.2194,-0.2169,-0.2208,-0.2174,-0.2179,-0.2161,-0.22,-0.2168,-0.2171,-0.2125,-0.2124,-0.2124,-0.2123,0,0,-0.1778,-0.1867,-0.1871,-0.1912,-0.1978,-0.2018,-0.2062,-0.2134,-0.2186,-0.2204,-0.2267,-0.2266,-0.2279,-0.228,-0.227,-0.2277,-0.2281,-0.2233,-0.2233,-0.2207,-0.2292,-0.2237,-0.2233,-0.2294,-0.2295,-0.2296,-0.2246,0,-0.1776,-0.1838,-0.1888,-0.195,-0.1992,-0.2057,-0.2107,-0.2176,-0.222,-0.2281,-0.2308,-0.2344,-0.2308,-0.232,-0.2328,-0.2288,-0.2293,-0.2291,-0.2259,-0.2257,-0.2205,-0.2238,-0.211,-0.2053,-0.2248,-0.2249,-0.2249,0,-0.1776,-0.1824,-0.1876,-0.1993,-0.2021,-0.2058,-0.2175,-0.2227,-0.2322,-0.2362,-0.242,-0.2432,-0.2445,-0.2409,-0.2387,-0.2381,-0.2338,-0.2308,-0.2307,-0.2242,-0.2208,-0.2051,-0.205,-0.2027,-0.2253,-0.2252,-0.2252,0,-0.1728,-0.1826,-0.1867,-0.1898,-0.202,-0.2066,-0.2135,-0.2244,-0.231,-0.2403,-0.2446,-0.2494,-0.2483,-0.2473,-0.2392,-0.2388,-0.2352,-0.2352,-0.2272,-0.2265,-0.2144,-0.2126,-0.2118,-0.2358,-0.2358,-0.2358,-0.2358,0,-0.171,-0.1752,-0.1847,-0.1869,-0.1959,-0.2046,-0.2148,-0.2233,-0.234,-0.2395,-0.2468,-0.2491,-0.2493,-0.247,-0.2419,-0.2336,-0.238,-0.2277,-0.2261,-0.2154,-0.2138,-0.2101,-0.2122,-0.2356,-0.2356,-0.2357,-0.2357,0,-0.165,-0.1705,-0.1771,-0.1886,-0.1932,-0.1992,-0.2149,-0.2213,-0.2318,-0.2382,-0.2403,-0.2471,-0.2432,-0.2432,-0.2385,-0.2342,-0.2248,-0.2261,-0.2108,-0.2077,-0.1987,-0.2014,-0.1998,-0.1946,-0.2169,-0.2168,-0.2167,0,-0.1626,-0.1639,-0.176,-0.1799,-0.1846,-0.1954,-0.2022,-0.2178,-0.2225,-0.2341,-0.2336,-0.2362,-0.2337,-0.2283,-0.2226,-0.2166,-0.2171,-0.2024,-0.2017,-0.1967,-0.1988,-0.2015,-0.1974,-0.1856,-0.1853,-0.185,-0.1847,0,-0.1568,-0.1595,-0.1646,-0.1721,-0.1787,-0.1883,-0.1971,-0.2016,-0.2145,-0.2188,-0.219,-0.2191,-0.2168,-0.2059,-0.2025,-0.1973,-0.1969,-0.1961,-0.196,-0.1787,-0.1766,-0.1711,-0.188,-0.182,-0.1823,-0.1825,-0.1826,-0.1827,-0.1507,-0.1523,-0.1565,-0.1639,-0.1704,-0.1738,-0.1767,-0.1837,-0.1882,-0.19,-0.1972,-0.1942,-0.1911,-0.1846,-0.1803,-0.1697,-0.1781,-0.1637,-0.1682,-0.172,-0.1657,-0.1753,-0.1658,-0.166,-0.1661,-0.1663,-0.1664,0,-0.1412,-0.1432,-0.1483,-0.1535,-0.1534,-0.1618,-0.1671,-0.1654,-0.1622,-0.1684,-0.1676,-0.1659,-0.1566,-0.1572,-0.1493,-0.1431,-0.1403,-0.1409,-0.141,-0.1388,-0.1491,-0.1464,-0.1263,-0.1263,-0.1263,-0.1263,-0.1263,-0.1263,-0.1357,-0.1348,-0.1376,-0.1337,-0.136,-0.1316,-0.131,-0.13,-0.1324,-0.1301,-0.1332,-0.14,-0.1414,-0.1479,-0.1374,-0.1303,-0.1291,-0.1245,-0.1312,-0.1377,-0.1402,-0.1426,-0.1404,-0.1194,-0.1194,-0.1119,-0.1119,-0.1119]},{"header":{"parameterUnit":"m.s-1","parameterCategory":2,"la1":30.2991,"la2":30.254,"lo1":-89.0895,"lo2":-89.0444,"dy":0.0017,"dx":0.0017,"nx":28,"ny":28,"refTime":"2025-12-03T03:00:00:Z","depth":"0","parameterNumber":3,"parameterNumberName":"V-component_of_CURRENTS"},"data":[0,0,0,0,0,0,0,0,0,0,0,0,0,0,0,0,0,0,0,0,0,0,0,0,0,0,0,0,0,0,0,0,0,0,0,0,0,0,0,0,0,0,0,0,0,0,0,0,0,0,0,0,0,0,0,0,0,0,-0.0448,-0.0447,0,-0.0354,-0.0352,-0.0351,-0.0288,-0.0287,-0.0287,-0.0287,-0.0152,-0.0149,-0.0146,0,0,0,0,0,0,0,0,0,0,0,0,0,-0.0503,-0.0503,-0.0448,-0.0447,-0.0446,-0.0354,-0.0352,-0.0351,-0.0288,-0.0287,-0.0287,-0.0286,-0.0153,-0.0149,-0.0146,0,0,0,0,0,0,0,0,0,0,0,0,0,-0.0451,-0.0503,-0.0448,-0.0404,-0.0399,-0.0354,-0.0352,-0.0351,-0.0288,-0.0287,-0.0287,-0.0286,-0.0155,-0.015,-0.0145,-0.0127,0,0,-0.013,-0.0128,0,0,0,0,0,0,0,0,-0.0454,-0.0449,-0.0411,-0.0407,-0.0401,-0.0332,-0.0322,-0.0274,-0.0288,-0.0329,-0.0287,-0.0286,-0.021,-0.02,-0.0183,-0.012,-0.0115,-0.013,-0.0127,-0.0125,-0.0123,0,0,0,0,0,0,0,-0.0458,-0.0452,-0.041,-0.041,-0.0404,-0.0364,-0.0357,-0.0313,-0.0273,-0.0326,-0.0321,-0.0312,-0.0206,-0.0188,-0.018,-0.0113,-0.013,-0.0126,-0.0123,-0.0121,-0.0005,-0.0005,0,0,0,0,0,0,-0.0475,-0.0456,-0.0413,-0.0407,-0.0427,-0.0364,-0.0355,-0.0355,-0.0274,-0.0261,-0.0312,-0.0309,-0.0197,-0.0185,-0.0175,-0.0126,-0.0125,-0.012,-0.0118,-0.0005,-0.0005,-0.0005,0,0,0,0,0,0,-0.0477,-0.0472,-0.0417,-0.0429,-0.0419,-0.0364,-0.0363,-0.0353,-0.0333,-0.0264,-0.0251,-0.0303,-0.0196,-0.0181,-0.0132,-0.0121,-0.0118,-0.0114,-0.0006,-0.0005,-0.0005,-0.0042,0,0,0,0,0,0,-0.0479,-0.0474,-0.0481,-0.0431,-0.0419,-0.0394,-0.0363,-0.0352,-0.0329,-0.0323,-0.0252,-0.0239,-0.0194,-0.0139,-0.0127,-0.0114,-0.011,-0.0006,-0.0005,-0.0005,-0.0041,-0.0044,-0.0045,0,0,0,0,0,-0.0481,-0.0496,-0.0482,-0.0477,-0.0431,-0.0394,-0.0384,-0.0342,-0.0329,-0.0322,-0.0271,-0.0241,-0.0128,-0.0135,-0.0121,-0.0106,-0.0006,-0.0005,-0.0005,-0.0041,-0.0043,-0.0045,0,0,0,0,0,0,-0.0529,-0.0489,-0.0473,-0.0477,-0.0439,-0.0383,-0.0376,-0.0348,-0.0304,-0.0299,-0.0236,-0.0219,-0.0173,-0.0138,-0.0147,-0.0073,-0.0063,-0.006,-0.0095,-0.0097,-0.0099,-0.0106,-0.0106,0,0,0,0,0,-0.0543,-0.0541,-0.0494,-0.0497,-0.0482,-0.0431,-0.0412,-0.0383,-0.0336,-0.0316,-0.0265,-0.0212,-0.0161,-0.0129,-0.0084,-0.0042,-0.0001,-0.0025,-0.0027,-0.0028,-0.0025,0.0052,0.0058,-0.0004,-0.0004,-0.0004,0,0,-0.0564,-0.0542,-0.0541,-0.0507,-0.0476,-0.0453,-0.0418,-0.0394,-0.0369,-0.0309,-0.0266,-0.0219,-0.0154,-0.0105,-0.0081,-0.0072,0.0006,-0.0028,-0.003,-0.0025,0.0054,0.006,0.0065,-0.0003,-0.0003,-0.0003,0,0,-0.0596,-0.0583,-0.0586,-0.0556,-0.0513,-0.0478,-0.0474,-0.0419,-0.0389,-0.0346,-0.0293,-0.0239,-0.0171,-0.011,-0.0074,-0.006,-0.0011,-0.0052,-0.0057,0.0017,0.0023,0.0029,0.007,0.0079,-0.0047,-0.0047,-0.0047,0,-0.0624,-0.0614,-0.0581,-0.0567,-0.0545,-0.0493,-0.0481,-0.0443,-0.0378,-0.0346,-0.034,-0.022,-0.0169,-0.0087,-0.0083,-0.0062,-0.0025,-0.0054,0.0016,0.0022,0.0029,0.0069,0.0081,-0.0049,-0.0048,-0.0048,-0.0048,0,-0.0642,-0.0633,-0.0632,-0.0596,-0.0572,-0.0554,-0.0497,-0.0466,-0.043,-0.0382,-0.0308,-0.0237,-0.016,-0.0138,-0.0105,-0.003,-0.0023,-0.0001,0.0021,0.0033,0.0074,0.0087,-0.0051,-0.005,-0.005,-0.005,0,0,-0.0703,-0.0655,-0.0653,-0.0639,-0.0583,-0.0566,-0.0525,-0.0464,-0.0428,-0.0368,-0.0313,-0.0225,-0.0184,-0.014,-0.0085,-0.002,0.0049,0.0004,0.0008,0.0041,0.0192,0.0208,0.0224,0.0086,0.0088,0.009,0.0195,0,-0.0724,-0.0709,-0.0676,-0.066,-0.0644,-0.0586,-0.0554,-0.0493,-0.0431,-0.0367,-0.0281,-0.0213,-0.0184,-0.0145,-0.0076,0.0023,0.0083,0.0017,0.0178,0.0182,0.0195,0.024,0.0261,0.0358,0.0207,0.021,0.0211,0,-0.0744,-0.0729,-0.0717,-0.068,-0.0669,-0.0654,-0.0583,-0.0546,-0.044,-0.0392,-0.0304,-0.0233,-0.0126,-0.0111,0.0063,0.0018,0.0098,0.0167,0.0174,0.0215,0.0223,0.0327,0.0387,0.0528,0.0231,0.0229,0.0228,0,-0.0786,-0.0758,-0.075,-0.0735,-0.0684,-0.0669,-0.0643,-0.0552,-0.0515,-0.0399,-0.0356,-0.0223,-0.0156,-0.003,0.0105,0.0094,0.0283,0.0292,0.038,0.0381,0.0444,0.0447,0.0663,0.0415,0.0415,0.0414,0.0414,0,-0.0809,-0.0805,-0.0772,-0.0764,-0.0764,-0.0714,-0.069,-0.0634,-0.0551,-0.0504,-0.0377,-0.0314,-0.013,-0.0002,0.0112,0.0283,0.0296,0.0393,0.0424,0.0428,0.0428,0.0589,0.0633,0.0418,0.0417,0.0417,0.0416,0,-0.0843,-0.0821,-0.0814,-0.0781,-0.0781,-0.0779,-0.0748,-0.0722,-0.0634,-0.0566,-0.0532,-0.0366,-0.0194,-0.0016,0.0196,0.0295,0.0542,0.0507,0.048,0.0507,0.0716,0.0755,0.0978,0.1061,0.0633,0.0634,0.0635,0,-0.0852,-0.0848,-0.084,-0.0854,-0.0843,-0.0841,-0.084,-0.0774,-0.0739,-0.0603,-0.0573,-0.0389,-0.0253,0.0057,0.0277,0.0503,0.0605,0.0647,0.0642,0.0751,0.0818,0.084,0.0895,0.0703,0.0705,0.0706,0.0707,0,-0.0862,-0.086,-0.0856,-0.0894,-0.0909,-0.0917,-0.0905,-0.0898,-0.0808,-0.0738,-0.062,-0.05,-0.0186,0.0094,0.0396,0.0528,0.0753,0.0679,0.0827,0.0926,0.0934,0.1018,0.0581,0.0718,0.0717,0.0716,0.0716,0.0715,-0.0865,-0.0876,-0.0886,-0.0927,-0.095,-0.0972,-0.0979,-0.0955,-0.0911,-0.0791,-0.0678,-0.0471,-0.0051,0.0386,0.0541,0.0891,0.0859,0.0998,0.1043,0.1062,0.1134,0.0699,0.0848,0.0847,0.0847,0.0847,0.0847,0,-0.0853,-0.0881,-0.0923,-0.0957,-0.0989,-0.0996,-0.1003,-0.0995,-0.0956,-0.0814,-0.0682,-0.0217,0.0188,0.0574,0.1063,0.1253,0.1296,0.1348,0.1407,0.1451,0.1112,0.1109,0.1279,0.1279,0.1279,0.1279,0.1279,0.1279,-0.0847,-0.0881,-0.0915,-0.0977,-0.1004,-0.103,-0.1035,-0.102,-0.0929,-0.0701,-0.0437,-0.0223,0.0358,0.1123,0.1573,0.1614,0.1782,0.1753,0.185,0.1628,0.16,0.1572,0.1584,0.1851,0.1852,0.2181,0.2184,0.2187]}],[{"header":{"parameterUnit":"m.s-1","parameterCategory":2,"la1":30.2991,"la2":30.254,"lo1":-89.0895,"lo2":-89.0444,"dy":0.0017,"dx":0.0017,"nx":28,"ny":28,"refTime":"2025-12-03T03:00:00:Z","depth":"2","parameterNumber":2,"parameterNumberName":"U-component_of_CURRENTS"},"data":[0,0,0,0,0,0,0,0,0,0,0,0,0,0,0,0,0,0,0,0,0,0,0,0,0,0,0,0,0,0,0,0,0,0,0,0,0,0,0,0,0,0,0,0,0,0,0,0,0,0,0,0,0,0,0,0,0,0,-0.1699,-0.1699,0,-0.173,-0.173,-0.1731,-0.1745,-0.1745,-0.1745,-0.1745,-0.1708,-0.1707,-0.1706,0,0,0,0,0,0,0,0,0,0,0,0,0,-0.1632,-0.1634,-0.1699,-0.1699,-0.17,-0.173,-0.173,-0.1731,-0.1745,-0.1745,-0.1745,-0.1745,-0.1708,-0.1707,-0.1706,0,0,0,0,0,0,0,0,0,0,0,0,0,-0.1663,-0.1634,-0.1699,-0.171,-0.1711,-0.173,-0.173,-0.1731,-0.1745,-0.1745,-0.1745,-0.1745,-0.1709,-0.1707,-0.1706,-0.17,0,0,-0.1702,-0.1701,0,0,0,0,0,0,0,0,-0.1661,-0.1665,-0.1708,-0.1709,-0.1711,-0.1733,-0.1693,-0.1717,-0.1745,-0.1733,-0.1745,-0.1745,-0.1709,-0.1708,-0.1716,-0.1698,-0.1697,-0.1702,-0.1701,-0.17,-0.17,0,0,0,0,0,0,0,-0.1659,-0.1664,-0.1712,-0.1708,-0.171,-0.1706,-0.1711,-0.1698,-0.1721,-0.1734,-0.1735,-0.1737,-0.171,-0.1718,-0.1715,-0.1696,-0.1702,-0.17,-0.17,-0.1699,-0.1707,-0.1708,0,0,0,0,0,0,-0.1655,-0.1662,-0.1711,-0.1713,-0.1684,-0.1707,-0.1713,-0.1727,-0.1723,-0.1722,-0.1737,-0.1738,-0.172,-0.1717,-0.1714,-0.1743,-0.17,-0.1699,-0.1698,-0.1706,-0.1707,-0.1708,0,0,0,0,0,0,-0.1654,-0.166,-0.171,-0.1687,-0.1693,-0.1709,-0.1724,-0.1727,-0.1744,-0.1726,-0.1724,-0.1752,-0.172,-0.1716,-0.172,-0.174,-0.1698,-0.1697,-0.1705,-0.1706,-0.1708,-0.1776,0,0,0,0,0,0,-0.1652,-0.1659,-0.1665,-0.1687,-0.1694,-0.1727,-0.1724,-0.1728,-0.1745,-0.1746,-0.1738,-0.1734,-0.1719,-0.1723,-0.1719,-0.1737,-0.1696,-0.1703,-0.1705,-0.1707,-0.1773,-0.178,-0.1786,0,0,0,0,0,-0.165,-0.1661,-0.1666,-0.1671,-0.1703,-0.1728,-0.1732,-0.1742,-0.1745,-0.1757,-0.1758,-0.1735,-0.1732,-0.1723,-0.1718,-0.1736,-0.1702,-0.1705,-0.1707,-0.177,-0.1779,-0.1786,0,0,0,0,0,0,-0.1631,-0.1664,-0.167,-0.1689,-0.1709,-0.173,-0.1737,-0.1749,-0.1761,-0.1761,-0.1747,-0.1744,-0.1754,-0.1736,-0.1726,-0.1744,-0.1713,-0.1715,-0.1763,-0.1771,-0.1777,-0.1791,-0.1695,0,0,0,0,0,-0.163,-0.1649,-0.1677,-0.169,-0.1702,-0.1722,-0.1732,-0.1746,-0.1759,-0.1765,-0.1761,-0.1757,-0.1759,-0.1758,-0.1751,-0.176,-0.1741,-0.1769,-0.1776,-0.1781,-0.179,-0.1764,-0.1769,-0.1716,-0.1716,-0.1716,0,0,-0.1622,-0.1644,-0.1652,-0.1687,-0.1702,-0.1727,-0.1729,-0.1752,-0.1778,-0.1756,-0.1783,-0.1777,-0.1766,-0.1782,-0.1784,-0.177,-0.1793,-0.1784,-0.1789,-0.1795,-0.1767,-0.1772,-0.1777,-0.1717,-0.1717,-0.1717,0,0,-0.1622,-0.1641,-0.1659,-0.1683,-0.1713,-0.173,-0.174,-0.1771,-0.179,-0.1813,-0.181,-0.1822,-0.1816,-0.1824,-0.1825,-0.1862,-0.1827,-0.1858,-0.1904,-0.188,-0.1884,-0.1887,-0.1895,-0.1898,-0.1863,-0.1863,-0.1863,0,-0.1607,-0.1644,-0.1666,-0.1694,-0.1717,-0.1735,-0.1766,-0.1788,-0.1817,-0.1826,-0.1825,-0.1847,-0.1838,-0.187,-0.1893,-0.1878,-0.1866,-0.1875,-0.1888,-0.1891,-0.1893,-0.19,-0.1903,-0.1867,-0.1866,-0.1866,-0.1865,0,-0.1628,-0.1658,-0.1671,-0.1717,-0.1744,-0.1772,-0.181,-0.1832,-0.1851,-0.186,-0.1895,-0.1907,-0.1914,-0.1924,-0.1923,-0.1947,-0.1936,-0.1897,-0.1867,-0.1902,-0.1908,-0.191,-0.1872,-0.187,-0.1869,-0.1868,0,0,-0.159,-0.1671,-0.1674,-0.1706,-0.1765,-0.1788,-0.1833,-0.1869,-0.1887,-0.1917,-0.1947,-0.1979,-0.198,-0.1983,-0.1994,-0.1995,-0.2014,-0.1964,-0.1961,-0.1973,-0.1984,-0.1929,-0.1926,-0.197,-0.197,-0.1971,-0.1991,0,-0.1597,-0.1661,-0.1701,-0.1754,-0.1793,-0.1831,-0.1867,-0.1899,-0.1922,-0.1946,-0.1975,-0.1996,-0.2005,-0.2022,-0.2028,-0.2008,-0.2018,-0.2014,-0.1947,-0.1946,-0.1893,-0.1925,-0.1745,-0.1742,-0.1992,-0.1992,-0.1992,0,-0.1602,-0.1652,-0.1715,-0.1788,-0.1806,-0.1835,-0.1892,-0.1922,-0.1953,-0.1975,-0.2008,-0.2018,-0.2059,-0.2048,-0.2053,-0.2048,-0.2029,-0.2018,-0.2016,-0.194,-0.1893,-0.1742,-0.1735,-0.1994,-0.1994,-0.1994,-0.1994,0,-0.1571,-0.1654,-0.1707,-0.1735,-0.1818,-0.1846,-0.1876,-0.1917,-0.1933,-0.1987,-0.2004,-0.2044,-0.2065,-0.2053,-0.2049,-0.2041,-0.2037,-0.2007,-0.1954,-0.1951,-0.1772,-0.1753,-0.2002,-0.2002,-0.2002,-0.2002,-0.2002,0,-0.1566,-0.1602,-0.1696,-0.1722,-0.1757,-0.1829,-0.1852,-0.1887,-0.1935,-0.1941,-0.2009,-0.2037,-0.206,-0.2064,-0.2053,-0.2015,-0.2033,-0.1974,-0.1947,-0.1795,-0.1778,-0.1966,-0.1961,-0.2003,-0.2003,-0.2003,-0.2003,0,-0.1521,-0.1583,-0.1629,-0.172,-0.1741,-0.1755,-0.1811,-0.1823,-0.1893,-0.1915,-0.1936,-0.2012,-0.2023,-0.2049,-0.2032,-0.2007,-0.1981,-0.1961,-0.1807,-0.1761,-0.1918,-0.1917,-0.1903,-0.1901,-0.19,-0.1898,-0.1897,0,-0.1505,-0.1535,-0.1602,-0.1601,-0.1637,-0.1675,-0.1691,-0.1773,-0.1793,-0.1889,-0.1892,-0.1946,-0.1951,-0.1945,-0.1903,-0.1878,-0.1943,-0.1712,-0.1661,-0.193,-0.1905,-0.1907,-0.1908,-0.1467,-0.1462,-0.1458,-0.1455,0,-0.1467,-0.1484,-0.1516,-0.1515,-0.1527,-0.1548,-0.1591,-0.1606,-0.1701,-0.1739,-0.1783,-0.1801,-0.1819,-0.1709,-0.1701,-0.1661,-0.1702,-0.1636,-0.1927,-0.1522,-0.152,-0.1495,-0.151,-0.1422,-0.1425,-0.1428,-0.143,-0.1431,-0.1407,-0.1397,-0.1416,-0.1401,-0.1413,-0.1412,-0.1398,-0.1462,-0.1476,-0.1516,-0.1604,-0.1584,-0.1592,-0.1475,-0.1419,-0.1385,-0.1505,-0.1431,-0.1441,-0.1456,-0.1404,-0.1398,-0.1271,-0.1273,-0.1276,-0.1277,-0.1279,0,-0.1318,-0.1314,-0.1301,-0.1273,-0.1246,-0.1292,-0.1316,-0.1292,-0.1281,-0.1329,-0.1345,-0.1215,-0.1151,-0.1181,-0.1065,-0.106,-0.1041,-0.1022,-0.0982,-0.1015,-0.1044,-0.0971,-0.0724,-0.0722,-0.0721,-0.072,0,0,-0.1259,-0.1207,-0.1196,-0.1107,-0.1103,-0.1044,-0.1037,-0.1021,-0.1027,-0.0985,-0.097,-0.1063,-0.1111,-0.0903,-0.0865,-0.0773,-0.0885,-0.0733,-0.1171,-0.1152,-0.118,-0.1266,-0.1189,0,0,0,0,0]},{"header":{"parameterUnit":"m.s-1","parameterCategory":2,"la1":30.2991,"la2":30.254,"lo1":-89.0895,"lo2":-89.0444,"dy":0.0017,"dx":0.0017,"nx":28,"ny":28,"refTime":"2025-12-03T03:00:00:Z","depth":"2","parameterNumber":3,"parameterNumberName":"V-component_of_CURRENTS"},"data":[0,0,0,0,0,0,0,0,0,0,0,0,0,0,0,0,0,0,0,0,0,0,0,0,0,0,0,0,0,0,0,0,0,0,0,0,0,0,0,0,0,0,0,0,0,0,0,0,0,0,0,0,0,0,0,0,0,0,0.0082,0.0083,0,0.0168,0.0169,0.017,0.0191,0.0191,0.019,0.019,0.0253,0.0255,0.0257,0,0,0,0,0,0,0,0,0,0,0,0,0,-0.0005,-0.0004,0.0082,0.0083,0.0084,0.0168,0.0169,0.017,0.0191,0.0191,0.019,0.019,0.0252,0.0255,0.0257,0,0,0,0,0,0,0,0,0,0,0,0,0,0.0051,-0.0003,0.0082,0.0106,0.0109,0.0168,0.0169,0.017,0.0191,0.0191,0.019,0.0189,0.0252,0.0255,0.0258,0.029,0,0,0.0267,0.0269,0,0,0,0,0,0,0,0,0.0048,0.0054,0.0101,0.0104,0.0108,0.0169,0.0162,0.021,0.0191,0.0158,0.019,0.0189,0.0224,0.023,0.0246,0.0293,0.0296,0.0268,0.027,0.0271,0.0272,0,0,0,0,0,0,0,0.0044,0.0051,0.0115,0.0102,0.0107,0.0133,0.014,0.0171,0.0192,0.0161,0.0163,0.0175,0.0226,0.0243,0.0247,0.0297,0.0268,0.027,0.0272,0.0274,0.0332,0.0332,0,0,0,0,0,0,0.0034,0.0047,0.0112,0.0117,0.0077,0.0135,0.0142,0.0149,0.0193,0.0199,0.0176,0.0176,0.0238,0.0244,0.025,0.0248,0.0271,0.0274,0.0276,0.0333,0.0332,0.0332,0,0,0,0,0,0,0.0031,0.0038,0.0108,0.0085,0.0096,0.0137,0.0145,0.0151,0.0153,0.0204,0.021,0.0169,0.0237,0.0245,0.0263,0.0252,0.0275,0.0278,0.0333,0.0333,0.0332,0.0272,0,0,0,0,0,0,0.0028,0.0037,0.0026,0.0084,0.0097,0.0128,0.0146,0.0153,0.0163,0.0164,0.0201,0.0207,0.0237,0.0258,0.0266,0.0257,0.0281,0.0333,0.0333,0.0332,0.0274,0.027,0.0265,0,0,0,0,0,0.0025,0.0015,0.0025,0.0032,0.0085,0.0127,0.0136,0.0162,0.0163,0.0161,0.0185,0.0205,0.026,0.0261,0.027,0.0261,0.0334,0.0333,0.0332,0.0276,0.0271,0.0266,0,0,0,0,0,0,-0.0025,0.0018,0.003,0.0033,0.007,0.0131,0.0129,0.0151,0.0171,0.0162,0.0206,0.0214,0.0226,0.0252,0.0252,0.0276,0.0299,0.03,0.0253,0.0248,0.0243,0.0222,0.0283,0,0,0,0,0,-0.0041,-0.0044,0.0012,0.0012,0.0026,0.0073,0.0089,0.011,0.0143,0.015,0.0178,0.0205,0.0235,0.0246,0.0275,0.029,0.0321,0.0289,0.0285,0.0281,0.027,0.0321,0.032,0.033,0.033,0.033,0,0,-0.0058,-0.0038,-0.0038,-0.0,0.0026,0.0043,0.0079,0.0096,0.0104,0.0154,0.0157,0.019,0.0235,0.0251,0.0258,0.0269,0.0293,0.028,0.0276,0.0267,0.032,0.0319,0.0319,0.0329,0.0329,0.0329,0,0,-0.009,-0.0079,-0.0089,-0.0063,-0.0028,0.0005,0.0004,0.0054,0.0063,0.0083,0.0118,0.0145,0.0183,0.0219,0.0242,0.0231,0.0268,0.0233,0.0193,0.0243,0.0243,0.0243,0.0272,0.0276,0.023,0.023,0.023,0,-0.0115,-0.0117,-0.0084,-0.0081,-0.0074,-0.0018,-0.0023,0.0007,0.0054,0.0063,0.0068,0.0136,0.0171,0.0206,0.0196,0.0221,0.0245,0.021,0.0237,0.0238,0.0239,0.027,0.0274,0.0227,0.0227,0.0228,0.0228,0,-0.0141,-0.0148,-0.0152,-0.0136,-0.0123,-0.0118,-0.0071,-0.006,-0.0043,-0.0003,0.0023,0.0077,0.012,0.0133,0.0159,0.0183,0.0195,0.0226,0.0248,0.0234,0.0268,0.0273,0.0223,0.0224,0.0225,0.0225,0,0,-0.0185,-0.0176,-0.018,-0.0193,-0.0159,-0.0151,-0.0141,-0.0109,-0.0101,-0.0058,-0.0045,0.0009,0.0046,0.0073,0.0116,0.0149,0.0176,0.0175,0.018,0.02,0.0266,0.0283,0.0292,0.021,0.021,0.0211,0.0283,0,-0.022,-0.025,-0.0228,-0.0254,-0.0268,-0.0226,-0.0216,-0.0181,-0.0147,-0.0115,-0.005,-0.0014,0.0024,0.004,0.0081,0.0154,0.0189,0.0153,0.0281,0.0284,0.0298,0.0298,0.0265,0.0327,0.0289,0.029,0.0291,0,-0.0251,-0.0275,-0.0318,-0.0329,-0.0329,-0.0332,-0.0324,-0.0297,-0.0225,-0.0199,-0.0145,-0.0083,-0.0022,0.001,0.0127,0.0099,0.0169,0.0225,0.023,0.027,0.0312,0.0339,0.034,0.0301,0.03,0.0299,0.0299,0,-0.0312,-0.0335,-0.0386,-0.0388,-0.0382,-0.0399,-0.0384,-0.033,-0.0311,-0.0243,-0.0226,-0.0132,-0.0086,0.001,0.0131,0.0128,0.0256,0.0281,0.0364,0.0366,0.0375,0.0376,0.0363,0.0363,0.0363,0.0363,0.0362,0,-0.0356,-0.0393,-0.0424,-0.0447,-0.049,-0.0466,-0.0477,-0.0439,-0.0392,-0.0365,-0.0268,-0.0238,-0.0086,0.0013,0.0116,0.0255,0.0258,0.0352,0.0388,0.0352,0.035,0.0359,0.0357,0.0365,0.0365,0.0364,0.0364,0,-0.0408,-0.0419,-0.0471,-0.0505,-0.0515,-0.054,-0.053,-0.053,-0.0477,-0.0445,-0.0428,-0.0309,-0.0179,-0.0024,0.0144,0.024,0.037,0.0421,0.0357,0.0384,0.0445,0.044,0.0514,0.0515,0.0516,0.0517,0.0518,0,-0.044,-0.0478,-0.0527,-0.055,-0.0569,-0.0599,-0.0611,-0.0572,-0.0569,-0.049,-0.0484,-0.0353,-0.0249,0.0004,0.0191,0.0386,0.04,0.0469,0.0466,0.0434,0.0462,0.0455,0.0448,0.0451,0.0451,0.0451,0.0451,0,-0.0513,-0.0527,-0.057,-0.0612,-0.0643,-0.067,-0.0691,-0.0703,-0.065,-0.062,-0.0553,-0.0463,-0.0216,-0.0003,0.0256,0.0365,0.0434,0.0478,0.0479,0.0415,0.038,0.0406,0.0401,0.0452,0.0452,0.0452,0.0452,0.0452,-0.0565,-0.0595,-0.0638,-0.0671,-0.0705,-0.074,-0.0758,-0.0771,-0.0756,-0.0695,-0.0608,-0.0454,-0.0241,0.0122,0.0299,0.0467,0.0469,0.0517,0.0514,0.0512,0.0489,0.0458,0.0539,0.0539,0.054,0.054,0.054,0,-0.0624,-0.0649,-0.0692,-0.0721,-0.0767,-0.077,-0.0808,-0.0813,-0.0804,-0.0711,-0.0618,-0.0382,-0.0132,0.0095,0.0357,0.0515,0.0503,0.0541,0.0494,0.0492,0.049,0.0465,0.0509,0.051,0.051,0.0511,0,0,-0.0645,-0.069,-0.0697,-0.0767,-0.08,-0.0847,-0.0867,-0.0858,-0.0797,-0.0706,-0.058,-0.0401,-0.0123,0.0058,0.0253,0.039,0.0401,0.0402,0.0409,0.0328,0.0324,0.0457,0.0414,0,0,0,0,0]}],[{"header":{"parameterUnit":"m.s-1","parameterCategory":2,"la1":30.2991,"la2":30.254,"lo1":-89.0895,"lo2":-89.0444,"dy":0.0017,"dx":0.0017,"nx":28,"ny":28,"refTime":"2025-12-03T03:00:00:Z","depth":"4","parameterNumber":2,"parameterNumberName":"U-component_of_CURRENTS"},"data":[0,0,0,0,0,0,0,0,0,0,0,0,0,0,0,0,0,0,0,0,0,0,0,0,0,0,0,0,0,0,0,0,0,0,0,0,0,0,0,0,0,0,0,0,0,0,0,0,0,0,0,0,0,0,0,0,0,0,-0.0797,-0.0798,0,-0.0829,-0.0829,-0.083,-0.0848,-0.0848,-0.0848,-0.0848,-0.0882,-0.0883,-0.0883,0,0,0,0,0,0,0,0,0,0,0,0,0,-0.0751,-0.0751,-0.0797,-0.0798,-0.0798,-0.0829,-0.0829,-0.083,-0.0847,-0.0848,-0.0848,-0.0849,-0.0882,-0.0882,-0.0883,0,0,0,0,0,0,0,0,0,0,0,0,0,-0.0773,-0.0751,-0.0797,-0.0813,-0.0815,-0.0829,-0.0829,-0.083,-0.0847,-0.0848,-0.0848,-0.0849,-0.0882,-0.0882,-0.0883,-0.0879,0,0,-0.0886,-0.0886,0,0,0,0,0,0,0,0,-0.0772,-0.0774,-0.081,-0.0812,-0.0814,-0.0837,-0.0826,-0.0847,-0.0847,-0.0832,-0.0848,-0.0849,-0.0869,-0.0871,-0.0872,-0.0881,-0.0882,-0.0886,-0.0887,-0.0887,-0.0887,0,0,0,0,0,0,0,-0.077,-0.0773,-0.0807,-0.0811,-0.0813,-0.0819,-0.0822,-0.083,-0.0845,-0.0833,-0.0836,-0.0844,-0.087,-0.0871,-0.0873,-0.0883,-0.0886,-0.0887,-0.0887,-0.0888,-0.0939,-0.094,0,0,0,0,0,0,-0.0771,-0.0771,-0.0806,-0.0808,-0.0797,-0.082,-0.0823,-0.0827,-0.0845,-0.0849,-0.0843,-0.0844,-0.0869,-0.0871,-0.0874,-0.0919,-0.0887,-0.0888,-0.0888,-0.0938,-0.0939,-0.094,0,0,0,0,0,0,-0.077,-0.0774,-0.0805,-0.0793,-0.0798,-0.082,-0.0824,-0.0828,-0.0845,-0.0853,-0.0857,-0.0859,-0.0869,-0.0873,-0.0893,-0.0919,-0.0888,-0.0889,-0.0937,-0.0938,-0.094,-0.0979,0,0,0,0,0,0,-0.0768,-0.0773,-0.0781,-0.0793,-0.0799,-0.0824,-0.0824,-0.0828,-0.085,-0.0852,-0.0868,-0.087,-0.087,-0.0892,-0.0894,-0.092,-0.089,-0.0936,-0.0938,-0.0939,-0.0976,-0.0981,-0.0985,0,0,0,0,0,-0.0767,-0.0772,-0.0781,-0.0786,-0.0807,-0.0825,-0.0828,-0.0844,-0.085,-0.086,-0.0871,-0.0871,-0.0903,-0.0893,-0.0895,-0.0922,-0.0935,-0.0937,-0.0939,-0.0974,-0.098,-0.0985,0,0,0,0,0,0,-0.0758,-0.0775,-0.0785,-0.0797,-0.0817,-0.083,-0.0842,-0.0852,-0.0868,-0.0872,-0.0878,-0.0881,-0.0909,-0.0908,-0.0896,-0.0941,-0.0921,-0.0923,-0.0947,-0.0952,-0.0957,-0.0964,-0.0891,0,0,0,0,0,-0.076,-0.0769,-0.079,-0.0802,-0.0812,-0.083,-0.0842,-0.0853,-0.0867,-0.0875,-0.0889,-0.0902,-0.0916,-0.0928,-0.0937,-0.096,-0.0976,-0.0979,-0.0983,-0.0987,-0.0995,-0.1047,-0.1058,-0.0946,-0.0946,-0.0946,0,0,-0.0761,-0.0772,-0.0779,-0.0801,-0.0816,-0.0836,-0.0838,-0.0859,-0.0879,-0.0875,-0.0908,-0.0917,-0.0924,-0.095,-0.0964,-0.0956,-0.1026,-0.0989,-0.0993,-0.0998,-0.105,-0.1061,-0.1071,-0.0947,-0.0947,-0.0947,0,0,-0.0765,-0.0778,-0.0789,-0.0807,-0.0834,-0.0846,-0.0857,-0.0881,-0.0896,-0.0923,-0.0928,-0.0957,-0.0974,-0.0993,-0.1001,-0.1035,-0.1046,-0.1037,-0.107,-0.1121,-0.1131,-0.114,-0.1171,-0.1183,-0.1042,-0.1042,-0.1042,0,-0.0768,-0.0784,-0.0796,-0.0814,-0.0834,-0.0854,-0.0877,-0.0892,-0.0922,-0.0946,-0.0939,-0.0993,-0.0998,-0.1042,-0.1051,-0.1048,-0.107,-0.1049,-0.1128,-0.1137,-0.1146,-0.1176,-0.1188,-0.1044,-0.1044,-0.1044,-0.1044,0,-0.0779,-0.08,-0.0809,-0.0839,-0.0861,-0.0883,-0.091,-0.0938,-0.096,-0.0984,-0.1035,-0.1044,-0.1082,-0.1086,-0.1076,-0.114,-0.1133,-0.1126,-0.1117,-0.116,-0.1188,-0.12,-0.1047,-0.1046,-0.1046,-0.1045,0,0,-0.076,-0.0809,-0.0813,-0.0837,-0.0878,-0.0896,-0.0936,-0.0984,-0.1028,-0.1054,-0.1111,-0.1133,-0.1151,-0.1161,-0.1162,-0.1199,-0.1271,-0.1188,-0.119,-0.1222,-0.1377,-0.1247,-0.1248,-0.1281,-0.1284,-0.1286,-0.1371,0,-0.0769,-0.0806,-0.083,-0.0874,-0.0898,-0.0937,-0.0976,-0.1023,-0.1066,-0.1126,-0.1152,-0.12,-0.1175,-0.1201,-0.1236,-0.1264,-0.1305,-0.1248,-0.1327,-0.1329,-0.1212,-0.1258,-0.1293,-0.138,-0.1383,-0.1385,-0.1386,0,-0.0766,-0.0795,-0.0838,-0.0902,-0.0917,-0.0947,-0.1028,-0.1067,-0.115,-0.1188,-0.1246,-0.1271,-0.1329,-0.1299,-0.1382,-0.1347,-0.1368,-0.1383,-0.1387,-0.1261,-0.1222,-0.1329,-0.1408,-0.1406,-0.1405,-0.1403,-0.1402,0,-0.0739,-0.0798,-0.0836,-0.0856,-0.093,-0.0963,-0.1005,-0.1088,-0.1137,-0.1234,-0.1288,-0.1355,-0.1398,-0.1438,-0.1455,-0.1436,-0.1537,-0.1519,-0.1424,-0.1415,-0.149,-0.1479,-0.1589,-0.1588,-0.1588,-0.1588,-0.1588,0,-0.0727,-0.0757,-0.0828,-0.0848,-0.0901,-0.0955,-0.1028,-0.1083,-0.1177,-0.1245,-0.1316,-0.1368,-0.1438,-0.1491,-0.1498,-0.1487,-0.1578,-0.1438,-0.1433,-0.1502,-0.1492,-0.1498,-0.1486,-0.1591,-0.159,-0.159,-0.1589,0,-0.0687,-0.0734,-0.0783,-0.0863,-0.0888,-0.0925,-0.1024,-0.1083,-0.1175,-0.1266,-0.13,-0.1406,-0.1464,-0.1511,-0.1582,-0.1532,-0.1543,-0.1518,-0.1588,-0.1584,-0.138,-0.1369,-0.1432,-0.1428,-0.1425,-0.1422,-0.142,0,-0.0668,-0.0687,-0.078,-0.0812,-0.0848,-0.0914,-0.0965,-0.1064,-0.1122,-0.127,-0.1301,-0.14,-0.1453,-0.1453,-0.1503,-0.1515,-0.1488,-0.1493,-0.143,-0.1377,-0.1367,-0.1361,-0.1355,-0.1415,-0.1414,-0.1413,-0.1412,0,-0.0625,-0.0665,-0.0711,-0.0777,-0.083,-0.0895,-0.0964,-0.0994,-0.1115,-0.1217,-0.1269,-0.13,-0.136,-0.1383,-0.1399,-0.1402,-0.1488,-0.1459,-0.1465,-0.1406,-0.1357,-0.1349,-0.1347,-0.1401,-0.1403,-0.1404,-0.1404,0,-0.0592,-0.0614,-0.0676,-0.0731,-0.0803,-0.0846,-0.0892,-0.0949,-0.1009,-0.1153,-0.1165,-0.1262,-0.1348,-0.1326,-0.1341,-0.1328,-0.1304,-0.1261,-0.1277,-0.129,-0.1197,-0.1112,-0.1085,0,0,0,0,0,-0.055,-0.0571,-0.0623,-0.0683,-0.076,-0.0794,-0.0885,-0.0935,-0.1041,-0.1045,-0.1097,-0.1139,-0.1162,-0.1206,-0.1162,-0.1273,-0.1308,-0.1216,-0.1266,-0.134,-0.1353,-0.1253,0,0,0,0,0,0,-0.0524,-0.0563,-0.0598,-0.0633,-0.0666,-0.0733,-0.0784,-0.0856,-0.0854,-0.0963,-0.0975,-0.106,-0.1092,-0.1168,-0.1137,-0.1149,-0.1154,-0.127,-0.1266,-0.1333,-0.1344,-0.1354,-0.1256,0,0,0,0,0]},{"header":{"parameterUnit":"m.s-1","parameterCategory":2,"la1":30.2991,"la2":30.254,"lo1":-89.0895,"lo2":-89.0444,"dy":0.0017,"dx":0.0017,"nx":28,"ny":28,"refTime":"2025-12-03T03:00:00:Z","depth":"4","parameterNumber":3,"parameterNumberName":"V-component_of_CURRENTS"},"data":[0,0,0,0,0,0,0,0,0,0,0,0,0,0,0,0,0,0,0,0,0,0,0,0,0,0,0,0,0,0,0,0,0,0,0,0,0,0,0,0,0,0,0,0,0,0,0,0,0,0,0,0,0,0,0,0,0,0,0.0212,0.0213,0,0.0245,0.0246,0.0246,0.0269,0.027,0.027,0.027,0.0311,0.0312,0.0312,0,0,0,0,0,0,0,0,0,0,0,0,0,0.0197,0.0197,0.0212,0.0213,0.0213,0.0245,0.0246,0.0246,0.0269,0.027,0.027,0.027,0.031,0.0311,0.0313,0,0,0,0,0,0,0,0,0,0,0,0,0,0.0214,0.0197,0.0212,0.0228,0.023,0.0245,0.0246,0.0246,0.0269,0.027,0.027,0.027,0.031,0.0311,0.0313,0.0317,0,0,0.0317,0.0318,0,0,0,0,0,0,0,0,0.0213,0.0215,0.0226,0.0227,0.0229,0.0253,0.0255,0.027,0.0269,0.0255,0.027,0.027,0.0292,0.0295,0.0301,0.0319,0.0321,0.0317,0.0318,0.0319,0.0319,0,0,0,0,0,0,0,0.0212,0.0214,0.0226,0.0226,0.0228,0.0243,0.0245,0.0258,0.0272,0.0256,0.0258,0.0261,0.0293,0.0299,0.0302,0.0321,0.0317,0.0318,0.0319,0.032,0.036,0.036,0,0,0,0,0,0,0.0205,0.0212,0.0225,0.0227,0.0221,0.0243,0.0246,0.0246,0.0272,0.0276,0.026,0.0262,0.0297,0.03,0.0303,0.0311,0.0319,0.032,0.0321,0.036,0.036,0.036,0,0,0,0,0,0,0.0205,0.0206,0.0224,0.022,0.0223,0.0243,0.0242,0.0246,0.0257,0.0275,0.0279,0.0267,0.0297,0.0301,0.0318,0.0313,0.0321,0.0322,0.0359,0.036,0.036,0.0325,0,0,0,0,0,0,0.0204,0.0205,0.0206,0.022,0.0223,0.0231,0.0242,0.0247,0.0257,0.0259,0.0282,0.0286,0.0298,0.0316,0.032,0.0315,0.0323,0.0359,0.036,0.036,0.0326,0.0324,0.0323,0,0,0,0,0,0.0203,0.0202,0.0206,0.0208,0.0223,0.0231,0.0234,0.0249,0.0257,0.026,0.0278,0.0286,0.0321,0.0317,0.0322,0.0317,0.0359,0.0359,0.036,0.0327,0.0325,0.0323,0,0,0,0,0,0,0.0198,0.0204,0.0209,0.0211,0.022,0.0235,0.0239,0.025,0.0266,0.0268,0.0288,0.0293,0.0305,0.0319,0.0315,0.0331,0.0341,0.0343,0.0315,0.0313,0.0311,0.0287,0.0324,0,0,0,0,0,0.0196,0.0195,0.0205,0.0206,0.0209,0.0225,0.0232,0.024,0.0254,0.0262,0.028,0.0298,0.031,0.0318,0.0333,0.0342,0.0351,0.0343,0.0341,0.0339,0.0324,0.033,0.0327,0.0362,0.0362,0.0362,0,0,0.0194,0.0197,0.0198,0.0205,0.0213,0.0213,0.0229,0.0236,0.0236,0.0263,0.0274,0.0293,0.0312,0.0321,0.0328,0.0332,0.034,0.034,0.0338,0.0323,0.033,0.0327,0.0323,0.0362,0.0362,0.0362,0,0,0.0186,0.0192,0.0187,0.0191,0.0199,0.0207,0.0208,0.0223,0.0232,0.0244,0.0262,0.0274,0.0301,0.0307,0.0315,0.0314,0.0331,0.0325,0.0295,0.0302,0.0299,0.0296,0.0322,0.0321,0.0324,0.0324,0.0324,0,0.0185,0.0176,0.0188,0.0183,0.018,0.0202,0.0191,0.0205,0.0225,0.0218,0.0243,0.0265,0.029,0.0283,0.0289,0.0307,0.0321,0.0299,0.0298,0.0295,0.0292,0.032,0.0319,0.0322,0.0323,0.0323,0.0323,0,0.017,0.0164,0.0161,0.0158,0.0158,0.0154,0.0165,0.0168,0.0182,0.0189,0.0191,0.0227,0.0233,0.0251,0.0272,0.0265,0.0285,0.0294,0.0297,0.0286,0.0317,0.0317,0.032,0.0321,0.0321,0.0321,0,0,0.0163,0.0151,0.015,0.0131,0.014,0.0129,0.0129,0.0119,0.0095,0.0133,0.011,0.015,0.0164,0.0174,0.0204,0.0217,0.0231,0.0248,0.0249,0.0264,0.026,0.0253,0.0254,0.0239,0.0238,0.0238,0.0294,0,0.0146,0.0119,0.0121,0.009,0.0073,0.0079,0.0064,0.0057,0.0062,0.0051,0.0085,0.0084,0.0137,0.014,0.0162,0.0209,0.0228,0.0216,0.0276,0.0278,0.0264,0.0252,0.0236,0.0295,0.0295,0.0295,0.0295,0,0.0129,0.0108,0.0075,0.0028,0.0019,0.0005,-0.004,-0.0048,-0.0055,-0.0053,-0.0042,-0.0012,0.0019,0.0066,0.0137,0.0128,0.0188,0.0231,0.0234,0.0233,0.027,0.0305,0.0296,0.0296,0.0296,0.0296,0.0296,0,0.0102,0.0069,0.0034,0.0025,-0.0013,-0.004,-0.0061,-0.0083,-0.0113,-0.0113,-0.0129,-0.009,-0.0062,0.0005,0.0116,0.0122,0.0197,0.0216,0.0266,0.0268,0.0273,0.0275,0.0255,0.0254,0.0254,0.0254,0.0254,0,0.0077,0.0047,0.0015,-0.0005,-0.0075,-0.0081,-0.0152,-0.0167,-0.0193,-0.0233,-0.018,-0.0185,-0.0076,-0.0012,0.0084,0.0179,0.0176,0.025,0.0271,0.0262,0.0262,0.0275,0.0277,0.0256,0.0256,0.0255,0.0255,0,0.0055,0.0041,-0.0012,-0.0063,-0.0087,-0.0136,-0.0211,-0.0264,-0.0268,-0.0311,-0.0309,-0.0254,-0.0165,-0.0053,0.0066,0.0136,0.0227,0.0265,0.0255,0.0277,0.0305,0.0304,0.031,0.031,0.031,0.031,0.031,0,0.0041,0.0017,-0.0057,-0.011,-0.0136,-0.0208,-0.0268,-0.0298,-0.0341,-0.0349,-0.0365,-0.0294,-0.024,-0.0074,0.0048,0.021,0.0239,0.0284,0.0282,0.0285,0.0305,0.0305,0.0304,0.031,0.031,0.031,0.031,0,0.001,-0.0011,-0.0058,-0.0166,-0.0238,-0.032,-0.0388,-0.0422,-0.0445,-0.0449,-0.0414,-0.0327,-0.0226,-0.0082,0.0047,0.0166,0.0246,0.0285,0.0285,0.0283,0.0285,0.0305,0.0305,0.031,0.031,0.031,0.031,0,-0.0013,-0.0059,-0.0129,-0.0232,-0.0324,-0.0404,-0.0436,-0.0471,-0.05,-0.0483,-0.0465,-0.0348,-0.0273,-0.0104,0.0014,0.0126,0.0154,0.0186,0.0192,0.0194,0.0143,0.0127,0.0109,0,0,0,0,0,-0.0034,-0.0101,-0.02,-0.031,-0.04,-0.045,-0.0513,-0.0528,-0.0532,-0.0516,-0.049,-0.039,-0.0217,-0.0137,-0.0026,0.001,0.0168,0.0141,0.0206,0.031,0.031,0.0269,0,0,0,0,0,0,-0.0058,-0.0137,-0.0205,-0.0351,-0.0433,-0.0527,-0.0562,-0.0562,-0.0542,-0.0521,-0.0422,-0.0372,-0.0195,-0.0277,-0.0026,0.0008,0.0061,0.0226,0.0228,0.031,0.031,0.031,0.0268,0,0,0,0,0]}]]